Location: Sternwarte ZA, Rosenfeld-Brittheim
(48.2889°N, 8.6789°E)
Time: 18:14:48
(UTC+01:00)

ISS - Pass Details

Date: 21 May 2017
Orbit: 403 x 406 km, 51.6° (Epoch: 15 December)

Event Time Altitude Azimuth Distance (km) Brightness Sun altitude
Exits shadow 03:01:44 - 285° (WNW) 1,704 -0.8 -18.0°
Reaches altitude 10° 03:02:15 10° 287° (WNW) 1,498 -1.0 -17.9°
Maximum altitude 03:05:30 45° 1° (N) 581 -2.6 -17.7°
Drops below altitude 10° 03:08:43 10° 76° (ENE) 1,486 -0.4 -17.5°
Sets 03:10:52 0° 83° (E) 2,344 0.5 -17.3°
